Regional Weather Roundup
Issued by NWS

Home | Current Version | Previous Version | Text Only | Print | Product List | Glossary On
Versions: 1 2 3 4 5 6 7 8 9 10 11 12 13 14 15 16 17 18 19 20 21 22 23 24 25 26 27 28 29 30 31 32 33 34 35 36 37 38 39 40 41 42 43 44 45 46 47 48 49 50
000
ASUS45 KSLC 280510
RWRUT

UTAH REGIONAL WEATHER ROUNDUP
NATIONAL WEATHER SERVICE SALT LAKE CITY UT
1100 PM MDT MON JUL 27 2015

UTZ001>011-023>025-280600-

NORTHERN UTAH

CITY           SKY/WX    TMP DP  RH WIND       PRES   REMARKS
BRIGHAM CITY   CLEAR     64  32  29 NW12      30.17R
HILL AFB       CLEAR     64  32  30 N8        30.17R
LOGAN            N/A    N/A N/A N/A MISG      30.18R
OGDEN          CLEAR     64  35  34 N9        30.15R
PROVO AIRPORT  CLEAR     68  43  40 NW17      30.12R
SALT LAKE CITY CLEAR     66  41  40 N14       30.13R
VERNAL         CLEAR     68  30  24 E7        30.06R
WENDOVER       CLEAR     70  25  18 N21       30.14R
HEBER CITY     CLEAR     63  32  31 NE6       30.18R
WEST JORDAN    CLEAR     66  37  34 NW18G25   30.15R

$$

UTZ012>022-026-027-280600-

SOUTHERN/CENTRAL UTAH

CITY           SKY/WX    TMP DP  RH WIND       PRES   REMARKS
BLANDING       CLEAR     65  25  22 N12       30.15R
BRYCE CANYON   CLEAR     51  24  34 CALM      30.24R
CEDAR CITY     CLEAR     71  21  15 NW12      30.10R
DELTA          CLEAR     68  37  31 N15       30.11R
HANKSVILLE     CLEAR     79  30  17 NW6       29.98R
MILFORD        CLEAR     69  32  25 N14       30.09R
MOAB/CYNLANDS  CLEAR     77  33  20 NW12      29.95R
PRICE          CLEAR     70  32  24 NW15G29   30.11R
ST GEORGE      CLEAR     81  30  16 SE7       29.90S
KANAB          CLEAR     73  27  17 S3        30.10R

$$

REGIONAL REPORTS     COLORADO/ARIZONA

CITY           SKY/WX    TMP DP  RH WIND       PRES   REMARKS
CRAIG, CO      CLEAR     60  31  33 W12       30.19R
GRAND JUNCTION CLEAR     78  25  14 NE5       29.96R
RIFLE          CLEAR     76  30  18 NW14      30.05R
MONTROSE       CLEAR     67  34  29 E8        30.09R
CORTEZ         CLEAR     62  38  40 E9        30.10R
PAGE, AZ       CLEAR     87  21   9 W7        29.97R
GRAND CANYON   CLEAR     53  20  27 CALM      30.22R
KINGMAN        CLEAR     77  12   8 S14       29.97R
FLAGSTAFF      CLEAR     61  42  49 SW6       30.27R

$$

REGIONAL REPORTS    NEVADA/IDAHO/WYOMING

CITY           SKY/WX    TMP DP  RH WIND       PRES   REMARKS
LAS VEGAS, NV  PTCLDY    93  25   8 SW6       29.78R
ELY            CLEAR     63  28  26 N12       30.20R
ELKO           CLEAR     63  28  26 N9        30.20R
POCATELLO, ID  CLEAR     47  44  90 N6        30.20R
BURLEY         CLEAR     50  39  66 SW7       30.17R
EVANSTON, WY   CLEAR     51  34  52 NW7       30.27R
ROCK SPRINGS   CLEAR     57  33  40 W17G26    30.20R
KEMMERER       MOCLDY    48  34  57 W10       30.27R

$$


USA.gov is the U.S. government's official web portal to all federal, state and local government web resources and services.